PAT26 KBKT-KLFI

Flight info

Callsign PAT26
Flight time N/A
Altitude 5000
Route BKT1 MELIA
Aircraft H60/L-DGILORTUVY/SB2

Departure

Time 2026-05-06 23:59
Airport Allen C Perkinson Blackstone Army Air Field (KBKT)

Arrival

Time N/A
Airport Langley Air Force Base (KLFI)
Time Latitude Longitude Altitude Speed Heading
2026-05-06 23:34 37.08117 -77.95604 416 ft 0 kts 356°
2026-05-06 23:58 37.08116 -77.95605 424 ft 0 kts 350°
2026-05-06 23:58 37.08109 -77.95602 425 ft 4 kts 346°
2026-05-06 23:59 37.08106 -77.95602 552 ft 2 kts 332°
2026-05-06 23:59 37.08122 -77.95635 724 ft 13 kts 302°
2026-05-06 23:59 37.08253 -77.95937 954 ft 76 kts 296°
2026-05-06 23:59 37.08447 -77.96805 1240 ft 121 kts 278°
2026-05-07 00:00 37.08949 -77.97793 974 ft 164 kts 313°
2026-05-07 00:00 37.09570 -77.98846 1558 ft 141 kts 295°
2026-05-07 00:00 37.10138 -77.99859 2319 ft 146 kts 295°
2026-05-07 00:00 37.10518 -78.00587 2637 ft 148 kts 292°
2026-05-07 00:01 37.11387 -78.01956 3184 ft 163 kts 312°
2026-05-07 00:01 37.12623 -78.01997 3077 ft 207 kts 14°
2026-05-07 00:01 37.13126 -78.00592 2909 ft 151 kts 106°
2026-05-07 00:01 37.13021 -77.99652 4506 ft 81 kts 106°
2026-05-07 00:02 37.12906 -77.99038 5553 ft 73 kts 108°
2026-05-07 00:02 37.12636 -77.98385 6121 ft 106 kts 93°
2026-05-07 00:02 37.12508 -77.97258 5003 ft 158 kts 85°
2026-05-07 00:02 37.12619 -77.95886 4904 ft 162 kts 79°
2026-05-07 00:03 37.12748 -77.94511 4987 ft 160 kts 80°
2026-05-07 00:03 37.12838 -77.93138 5270 ft 155 kts 82°
2026-05-07 00:03 37.12820 -77.91720 5327 ft 161 kts 92°
2026-05-07 00:03 37.12727 -77.90395 5303 ft 154 kts 95°
2026-05-07 00:04 37.12588 -77.89014 5222 ft 164 kts 97°
2026-05-07 00:04 37.12418 -77.87606 4726 ft 159 kts 100°
2026-05-07 00:04 37.12270 -77.86235 4695 ft 150 kts 99°
2026-05-07 00:04 37.12145 -77.85043 4749 ft 130 kts 99°
2026-05-07 00:05 37.12033 -77.83945 4954 ft 133 kts 99°
2026-05-07 00:05 37.11906 -77.82745 4985 ft 137 kts 99°
2026-05-07 00:05 37.11789 -77.81540 4987 ft 139 kts 97°
2026-05-07 00:05 37.11693 -77.80342 4993 ft 138 kts 97°
2026-05-07 00:06 37.11622 -77.79147 4993 ft 137 kts 94°
2026-05-07 00:06 37.11570 -77.77953 4996 ft 137 kts 94°
2026-05-07 00:06 37.11511 -77.76758 4998 ft 137 kts 94°
2026-05-07 00:06 37.11526 -77.75965 4996 ft 138 kts 83°
2026-05-07 00:07 37.11662 -77.74773 4999 ft 139 kts 80°
2026-05-07 00:07 37.11792 -77.73573 5001 ft 139 kts 81°
2026-05-07 00:07 37.11920 -77.72373 5000 ft 139 kts 81°
2026-05-07 00:07 37.12040 -77.71172 4997 ft 139 kts 81°
2026-05-07 00:08 37.12157 -77.69974 5001 ft 138 kts 81°
2026-05-07 00:08 37.12273 -77.68778 5003 ft 138 kts 81°
2026-05-07 00:08 37.12349 -77.67564 4901 ft 142 kts 91°
2026-05-07 00:08 37.12289 -77.66356 4725 ft 139 kts 99°
2026-05-07 00:09 37.11935 -77.65209 4127 ft 151 kts 124°
2026-05-07 00:09 37.11398 -77.63948 2972 ft 173 kts 127°
2026-05-07 00:09 37.10792 -77.62629 2196 ft 177 kts 131°
2026-05-07 00:09 37.10100 -77.61365 1348 ft 171 kts 133°
2026-05-07 00:10 37.09369 -77.60266 945 ft 157 kts 136°
2026-05-07 00:10 37.08694 -77.59338 496 ft 96 kts 130°
2026-05-07 00:10 37.08516 -77.58956 530 ft 19 kts 126°
2026-05-07 00:10 37.08498 -77.58727 415 ft 25 kts 97°
2026-05-07 00:11 37.08492 -77.58638 343 ft 5 kts 97°
2026-05-07 00:11 37.08491 -77.58626 292 ft 0 kts 96°